Location: Bambrugge
(50.9212°N, 3.9299°E)
Time: 09:53:56
(UTC+00:00)

CSL-04 DEB - Visible Passes

Search period start: 06 October 2024 00:00
Search period end: 16 October 2024 00:00
Orbit: 700 x 858 km, 98.9° (Epoch: 05 October)

Date Brightness Start Highest point End Pass type
(mag) Time Alt. Az. Time Alt. Az. Time Alt. Az.
06 Oct ? 03:58:11 10° NE 04:01:40 18° E 04:05:13 10° SE visible
07 Oct ? 05:03:43 10° NNE 05:08:42 62° ESE 05:13:52 10° S visible
08 Oct ? 04:31:16 10° NNE 04:35:51 34° E 04:40:35 10° SSE visible
08 Oct ? 17:35:08 10° WSW 17:37:41 14° W 17:40:14 10° NW visible
09 Oct ? 03:59:16 10° NE 04:02:52 19° E 04:06:32 10° SE visible
10 Oct ? 05:04:49 10° NNE 05:09:52 63° ESE 05:15:06 10° S visible
11 Oct ? 04:32:20 10° NNE 04:37:00 35° E 04:41:49 10° SSE visible
11 Oct ? 17:36:15 10° WSW 17:38:46 14° W 17:41:19 10° NW visible
12 Oct ? 04:00:18 10° NE 04:03:59 20° E 04:07:46 10° SE visible
13 Oct ? 03:30:07 10° ENE 03:30:48 10° E 03:31:31 10° E visible
13 Oct ? 05:05:51 10° NNE 05:10:58 64° ESE 05:16:16 10° S visible
14 Oct ? 04:33:21 10° NNE 04:38:06 35° E 04:42:59 10° SSE visible
14 Oct ? 17:37:17 10° WSW 17:39:49 14° W 17:42:22 10° NW visible
15 Oct ? 04:01:16 10° NE 04:05:03 20° E 04:08:57 10° SE visible
